| time (UTC) | temp F | wind direction | speed MPH | gust MPH | rain 1hr in | rain 24hr in | rain mn in | humidity % | barometer mb |
| 20260904040015 | 52 | 120 | 0.0 | 0.0 | 0.00 | 0.00 | 0.00 | 95 | 1010.9 |
| 20260904034527 | 53 | 120 | 0.0 | 0.0 | 0.00 | 0.00 | 0.00 | 96 | 1010.8 |
| 20260904033010 | 53 | 120 | 0.0 | 0.0 | 0.00 | 0.00 | 0.00 | 95 | 1010.9 |
| 20260904031512 | 54 | 120 | 0.0 | 0.0 | 0.00 | 0.00 | 0.00 | 95 | 1010.8 |
| 20260904030006 | 54 | 120 | 0.0 | 0.0 | 0.00 | 0.00 | 0.00 | 95 | 1010.6 |
| 20260904024505 | 55 | 120 | 0.0 | 0.0 | 0.00 | 0.00 | 0.00 | 94 | 1010.4 |
| 20260904023104 | 55 | 120 | 0.0 | 0.0 | 0.00 | 0.00 | 0.00 | 94 | 1010.4 |
| 20260904021503 | 56 | 120 | 0.0 | 0.0 | 0.00 | 0.00 | 0.00 | 94 | 1010.3 |
| 20260904020003 | 57 | 120 | 0.0 | 0.0 | 0.00 | 0.00 | 0.00 | 93 | 1010.4 |
| 20260904014502 | 58 | 120 | 0.0 | 0.0 | 0.00 | 0.00 | 0.00 | 93 | 1010.3 |
| 20260904013002 | 58 | 120 | 0.0 | 0.0 | 0.00 | 0.00 | 0.00 | 92 | 1010.3 |
| 20260904011507 | 58 | 120 | 0.0 | 0.0 | 0.00 | 0.00 | 0.00 | 90 | 1010.3 |
| 20260904010002 | 58 | 120 | 0.0 | 0.0 | 0.00 | 0.00 | 0.00 | 90 | 1010.3 |
| 20260904004501 | 58 | 246 | 0.0 | 0.0 | 0.00 | 0.00 | 0.00 | 90 | 1010.3 |
| 20260904003101 | 59 | 246 | 0.0 | 0.0 | 0.00 | 0.00 | 0.00 | 89 | 1010.4 |
| 20260904001600 | 58 | 246 | 0.0 | 1.0 | 0.00 | 0.00 | 0.00 | 89 | 1010.3 |
| 20260903234559 | 58 | 24 | 0.0 | 2.0 | 0.00 | 0.00 | 0.00 | 90 | 1010.4 |
| 20260903233058 | 58 | 286 | 0.0 | 1.0 | 0.00 | 0.00 | 0.00 | 92 | 1010.4 |
| 20260903231559 | 58 | 339 | 0.0 | 1.0 | 0.00 | 0.00 | 0.00 | 92 | 1010.3 |
| 20260903230056 | 58 | 60 | 0.0 | 1.0 | 0.00 | 0.00 | 0.00 | 92 | 1010.2 |
| 20260903224556 | 58 | 297 | 0.0 | 1.0 | 0.00 | 0.00 | 0.00 | 91 | 1010.3 |
| 20260903223055 | 59 | 299 | 0.0 | 1.0 | 0.00 | 0.00 | 0.00 | 92 | 1010.2 |
| 20260903221555 | 59 | 299 | 0.0 | 0.0 | 0.00 | 0.00 | 0.00 | 91 | 1010.1 |
| 20260903220104 | 59 | 299 | 0.0 | 2.0 | 0.00 | 0.00 | 0.00 | 89 | 1010.1 |
| 20260903214552 | 59 | 248 | 0.0 | 0.0 | 0.00 | 0.00 | 0.00 | 90 | 1010.2 |
| 20260903213057 | 59 | 248 | 0.0 | 0.0 | 0.00 | 0.00 | 0.00 | 92 | 1010.2 |
| 20260903211553 | 58 | 158 | 0.0 | 1.0 | 0.00 | 0.00 | 0.00 | 92 | 1010.2 |
| 20260903210052 | 58 | 123 | 0.0 | 1.0 | 0.00 | 0.00 | 0.00 | 92 | 1010.1 |
| 20260903204545 | 58 | 261 | 0.0 | 0.0 | 0.00 | 0.00 | 0.00 | 93 | 1010.1 |
| 20260903203105 | 57 | 261 | 0.0 | 0.0 | 0.00 | 0.00 | 0.00 | 93 | 1010.0 |
| 20260903201541 | 57 | 261 | 0.0 | 0.0 | 0.00 | 0.00 | 0.00 | 95 | 1009.9 |
| 20260903200039 | 57 | 262 | 0.0 | 0.0 | 0.00 | 0.00 | 0.00 | 95 | 1009.9 |
| 20260903194538 | 57 | 262 | 0.0 | 0.0 | 0.00 | 0.00 | 0.00 | 95 | 1009.8 |
| 20260903193039 | 56 | 262 | 0.0 | 0.0 | 0.00 | 0.00 | 0.00 | 95 | 1009.6 |
| 20260903191534 | 56 | 271 | 0.0 | 1.0 | 0.00 | 0.00 | 0.00 | 95 | 1009.5 |
| 20260903190032 | 56 | 257 | 0.0 | 0.0 | 0.00 | 0.00 | 0.00 | 95 | 1009.4 |
| 20260903184534 | 56 | 257 | 0.0 | 1.0 | 0.00 | 0.00 | 0.00 | 95 | 1009.3 |
| 20260903183036 | 56 | 257 | 0.0 | 1.0 | 0.00 | 0.00 | 0.00 | 96 | 1009.1 |
| 20260903181528 | 56 | 17 | 0.0 | 2.0 | 0.00 | 0.00 | 0.00 | 96 | 1009.0 |
| 20260903180026 | 55 | 278 | 0.0 | 0.0 | 0.00 | 0.00 | 0.00 | 96 | 1008.9 |
| 20260903174526 | 55 | 324 | 0.0 | 0.0 | 0.00 | 0.00 | 0.00 | 97 | 1008.8 |
| 20260903173023 | 55 | 112 | 0.0 | 0.0 | 0.00 | 0.00 | 0.00 | 96 | 1008.6 |
| 20260903171523 | 55 | 287 | 0.0 | 0.0 | 0.00 | 0.00 | 0.00 | 97 | 1008.6 |
| 20260903170025 | 55 | 286 | 0.0 | 0.0 | 0.00 | 0.00 | 0.00 | 97 | 1008.4 |
| 20260903164519 | 55 | 287 | 0.0 | 0.0 | 0.00 | 0.00 | 0.00 | 97 | 1008.2 |
| 20260903163018 | 55 | 288 | 0.0 | 0.0 | 0.00 | 0.00 | 0.00 | 97 | 1008.2 |
| 20260903161516 | 55 | 288 | 0.0 | 0.0 | 0.00 | 0.00 | 0.00 | 97 | 1008.2 |
| 20260903160014 | 54 | 287 | 0.0 | 0.0 | 0.00 | 0.00 | 0.00 | 97 | 1008.0 |
| 20260903154510 | 54 | 287 | 0.0 | 0.0 | 0.00 | 0.00 | 0.00 | 97 | 1007.9 |
| 20260903153006 | 54 | 355 | 0.0 | 0.0 | 0.00 | 0.00 | 0.00 | 97 | 1007.9 |
| 20260903151506 | 54 | 356 | 0.0 | 1.0 | 0.00 | 0.00 | 0.00 | 97 | 1007.8 |
| 20260903150005 | 54 | 257 | 0.0 | 0.0 | 0.00 | 0.00 | 0.00 | 97 | 1007.8 |
| 20260903144505 | 54 | 41 | 0.0 | 0.0 | 0.00 | 0.00 | 0.00 | 97 | 1007.7 |
| 20260903143100 | 53 | 41 | 0.0 | 0.0 | 0.00 | 0.00 | 0.00 | 97 | 1007.6 |
| 20260903141600 | 53 | 273 | 0.0 | 0.0 | 0.00 | 0.00 | 0.00 | 97 | 1007.5 |
| 20260903140059 | 54 | 259 | 0.0 | 0.0 | 0.00 | 0.00 | 0.00 | 97 | 1007.3 |
| 20260903134557 | 54 | 259 | 0.0 | 0.0 | 0.00 | 0.00 | 0.00 | 97 | 1007.1 |
| 20260903133100 | 55 | 289 | 0.0 | 0.0 | 0.00 | 0.00 | 0.00 | 97 | 1007.0 |
| 20260903131554 | 55 | 282 | 0.0 | 0.0 | 0.00 | 0.00 | 0.00 | 97 | 1007.0 |
| 20260903130052 | 55 | 282 | 0.0 | 0.0 | 0.00 | 0.00 | 0.00 | 97 | 1007.0 |
| 20260903124604 | 55 | 282 | 0.0 | 0.0 | 0.00 | 0.00 | 0.00 | 97 | 1006.8 |
| 20260903123049 | 55 | 282 | 0.0 | 0.0 | 0.00 | 0.00 | 0.00 | 97 | 1006.8 |
| 20260903121547 | 55 | 282 | 0.0 | 0.0 | 0.00 | 0.00 | 0.00 | 97 | 1006.6 |
| 20260903120057 | 56 | 282 | 0.0 | 0.0 | 0.00 | 0.00 | 0.00 | 97 | 1006.4 |
| 20260903114545 | 56 | 282 | 0.0 | 0.0 | 0.00 | 0.00 | 0.00 | 97 | 1006.4 |
| 20260903113112 | 56 | 282 | 0.0 | 0.0 | 0.00 | 0.00 | 0.00 | 97 | 1006.3 |
| 20260903111545 | 56 | 282 | 0.0 | 0.0 | 0.00 | 0.00 | 0.00 | 97 | 1006.4 |
| 20260903110042 | 55 | 282 | 0.0 | 0.0 | 0.00 | 0.00 | 0.00 | 97 | 1006.4 |
| 20260903104555 | 55 | 282 | 0.0 | 0.0 | 0.00 | 0.00 | 0.00 | 97 | 1006.3 |
| 20260903103039 | 55 | 282 | 0.0 | 0.0 | 0.00 | 0.00 | 0.00 | 97 | 1006.1 |
| 20260903101537 | 55 | 282 | 0.0 | 0.0 | 0.00 | 0.00 | 0.00 | 97 | 1006.1 |
| 20260903100039 | 55 | 282 | 0.0 | 0.0 | 0.00 | 0.00 | 0.00 | 97 | 1005.8 |
| 20260903094546 | 55 | 282 | 0.0 | 0.0 | 0.00 | 0.00 | 0.00 | 97 | 1005.8 |
| 20260903093034 | 55 | 282 | 0.0 | 0.0 | 0.00 | 0.00 | 0.00 | 97 | 1005.6 |
| 20260903091543 | 54 | 282 | 0.0 | 0.0 | 0.00 | 0.00 | 0.00 | 97 | 1005.4 |
| 20260903090027 | 54 | 282 | 0.0 | 0.0 | 0.00 | 0.00 | 0.00 | 97 | 1005.4 |
| 20260903084524 | 54 | 282 | 0.0 | 0.0 | 0.00 | 0.00 | 0.00 | 97 | 1005.1 |
| 20260903083023 | 54 | 282 | 0.0 | 0.0 | 0.00 | 0.00 | 0.00 | 97 | 1005.0 |
| 20260903081525 | 54 | 282 | 0.0 | 0.0 | 0.00 | 0.00 | 0.00 | 97 | 1004.9 |
| 20260903080021 | 54 | 282 | 0.0 | 0.0 | 0.00 | 0.00 | 0.00 | 97 | 1004.9 |
| 20260903074520 | 54 | 282 | 0.0 | 0.0 | 0.00 | 0.00 | 0.00 | 97 | 1004.8 |
| 20260903073030 | 53 | 282 | 0.0 | 0.0 | 0.00 | 0.00 | 0.00 | 96 | 1004.7 |
| 20260903071525 | 53 | 282 | 0.0 | 1.0 | 0.00 | 0.00 | 0.00 | 96 | 1004.3 |
| 20260903070015 | 53 | 254 | 0.0 | 0.0 | 0.00 | 0.00 | 0.00 | 97 | 1004.5 |
| 20260903064513 | 53 | 254 | 0.0 | 0.0 | 0.00 | 0.00 | 0.00 | 96 | 1004.6 |
| 20260903063013 | 53 | 254 | 0.0 | 0.0 | 0.00 | 0.00 | 0.00 | 96 | 1004.5 |
| 20260903061511 | 53 | 254 | 0.0 | 0.0 | 0.00 | 0.00 | 0.00 | 96 | 1004.5 |
| 20260903060010 | 53 | 254 | 0.0 | 0.0 | 0.00 | 0.00 | 0.00 | 96 | 1004.5 |
| 20260903054509 | 53 | 254 | 0.0 | 0.0 | 0.00 | 0.00 | 0.00 | 96 | 1004.6 |
| 20260903053016 | 53 | 254 | 0.0 | 0.0 | 0.00 | 0.00 | 0.00 | 96 | 1004.6 |
| 20260903051506 | 53 | 254 | 0.0 | 0.0 | 0.00 | 0.00 | 0.00 | 96 | 1004.5 |
| 20260903050005 | 53 | 255 | 0.0 | 0.0 | 0.00 | 0.00 | 0.00 | 96 | 1004.5 |
| 20260903044503 | 54 | 254 | 0.0 | 0.0 | 0.00 | 0.00 | 0.00 | 95 | 1004.3 |
| 20260903043003 | 54 | 254 | 0.0 | 0.0 | 0.00 | 0.00 | 0.00 | 95 | 1004.4 |
| 20260903041606 | 55 | 254 | 0.0 | 0.0 | 0.00 | 0.00 | 0.00 | 95 | 1004.3 |